Location: Three Oaks Observatory
(31.1535°N, 83.5955°W)
Time: 15:06:08
(UTC-04:00)

ISS - Pass Details

Date: 24 February 2019
Orbit: 406 x 411 km, 51.6° (Epoch: 21 March)

Event Time Altitude Azimuth Distance (km) Brightness Sun altitude
Exits shadow 05:48:22 56° 263° (W) 487 -3.9 -17.5°
Maximum altitude 05:48:51 68° 315° (NW) 439 -3.9 -17.4°
Drops below altitude 10° 05:52:07 10° 39° (NE) 1,461 -0.5 -16.7°
Sets 05:54:13 0° 42° (NE) 2,324 0.6 -16.3°
